Location: Newark
(43.0000°N, 1.6781°W)
Time: 13:08:25
(UTC+00:00)

XW-2C - Pass Details

Date: 30 November 2022
Orbit: 492 x 506 km, 97.5° (Epoch: 31 January)

Event Time Altitude Azimuth Distance (km) Brightness Sun altitude
Rises 05:52:42 0° 19° (NNE) 2,584 ? -15.0°
Reaches altitude 10° 05:54:52 10° 27° (NNE) 1,695 ? -14.6°
Maximum altitude 05:58:19 40° 98° (E) 743 ? -14.0°
Drops below altitude 10° 06:01:44 10° 169° (S) 1,680 ? -13.4°
Sets 06:03:53 0° 177° (S) 2,557 ? -13.1°
